Regional Weather Roundup
Issued by NWS Newport/Morehead, NC

Current Version | Previous Version | Text Only | Print | Product List | Glossary Off
Versions: 1 2 3 4 5 6 7 8 9 10 11 12 13 14 15 16 17 18 19 20 21 22 23 24 25 26 27 28 29 30 31 32 33 34 35 36 37 38 39 40 41 42 43 44 45 46 47 48 49 50
000 ASUS42 KMHX 030313 RWRMHX WEATHER ROUNDUP FOR EASTERN NORTH CAROLINA NATIONAL WEATHER SERVICE NEWPORT/MOREHEAD CITY NC 1100 PM EDT WED SEP 02 2015 NOTE: "FAIR" INDICATES FEW OR NO CLOUDS BELOW 12,000 FEET WITH NO SIGNIFICANT WEATHER AND/OR OBSTRUCTIONS TO VISIBILITY NCZ015>017-031-032-045>047-102-103-030400- NORTH COAST CITY SKY/WX TMP DP RH WIND PRES REMARKS EDENTON LGT RAIN 72 65 79 W5 29.96F ELIZABETH CITY LGT RAIN 72 69 90 SW7 29.97R KITTY HAWK CLOUDY 76 71 84 SW5 29.95S HAZE MANTEO CLOUDY 78 74 87 W5 29.96S $$ NCZ045>047-081-094-103-104-030400- CENTRAL COAST CITY SKY/WX TMP DP RH WIND PRES REMARKS FRISCO PTCLDY 78 73 84 SW6 29.96F SWANQUARTER N/A 79 N/A N/A NW2 29.94R $$ NCZ095-097-098-100-101-030400- SOUTHERN COAST CITY SKY/WX TMP DP RH WIND PRES REMARKS BEAUFORT PTCLDY 80 77 90 SW5 29.97S CEDAR ISLAND N/A 77 N/A N/A S2 30.00S JACKSONVILLE CLEAR 78 73 84 SW5 29.97R PINEY ISLAND CLEAR N/A N/A N/A S5 29.97S WILMINGTON PTCLDY 79 74 84 SW6 29.98R $$ NCZ011>013-027>030-043-044-078>080-089-090>093-098-030400- COASTAL PLAIN CITY SKY/WX TMP DP RH WIND PRES REMARKS AHOSKIE HVY RAIN 69 68 96 CALM 30.00F CLINTON CLEAR 76 73 90 CALM 29.98R ELIZABETHTOWN CLEAR 78 74 85 S3 29.98S GOLDSBORO MOCLDY 78 73 82 S3 29.95 GREENVILLE LGT RAIN 75 68 78 N28G35 30.03R HAVELOCK PTCLDY 77 74 90 S5 29.98S KENANSVILLE N/A 74 73 95 CALM 29.98S KINSTON PTCLDY 76 72 89 S5 29.97S NEW BERN PTCLDY 77 73 87 CALM 29.98R RICHLANDS CLEAR 75 70 83 SW3 29.98R ROCKY MOUNT TSTM 72 70 93 NE9 30.01R FOG WASHINGTON PTCLDY 75 68 78 E6 29.98F WHITEVILLE CLEAR 77 73 87 CALM 29.98S $$ AMZ130-135-150-152-154-156-158-170-250-252-270-ANZ085-086-088-633-658-670-030400- MARINE OBSERVATIONS STATION/POSITION TIME TEMP WIND PRES WAVE SWELL AIR SEA DIR/SP/G HT/PER HT/PER (UTC) (F) (DEG/KT/KT) (MB) (FT/S) (FT/S) CHESAPEAKE LIGHT 0300 78 280/ 15/ 18 1014.6 64 E VA BEACH 0250 79 79 270/ 8/ 10 1013.4 2/13 2/13 DUCK 0200 79 79 270/ 5/ 6 1013.5 2 E DUCK 0211 81 N/A 1/13 OREGON INLET 0200 81 83 210/ 7/ 8 1014.3 13E OREGON INLT 0300 80 N/A 1/13 HATTERAS CG 0200 80 83 230/ 4/ 4 1014.6 DIAMOND BUOY 0250 82 86 210/ 2/ 4 1014.8 2/12 2/12 CAPE LOOKOUT 0300 80 230/ 5/ 6 1014.9 BEAUFORT LAB 0200 81 82 210/ 4/ 7 1014.2 30 SE NEW RVR IN 0208 82 82 240/ 8/ 10 1015.4 30 SE NEW RVR IN 0225 82 N/A 2/ 6 27 SE WRIGHTSVLE 0200 79 82 240/ 8/ 10 N/A 5 SE WRIGHTSVLE 0208 82 82 240/ 10/ 14 1014.9 225 S CAPE HAT 0250 82 84 30/ 4/ 6 1015.3 2/14 2/14 41 SE CHARLESTON 0250 82 84 230/ 6/ 8 1015.5 2/ 7 2/ 7 $$

USA.gov is the U.S. government's official web portal to all federal, state and local government web resources and services.